Regional Weather Roundup
Issued by NWS Bismarck, ND

Current Version | Previous Version | Text Only | Print | Product List | Glossary On
Versions: 1 2 3 4 5 6 7 8 9 10 11 12 13 14 15 16 17 18 19 20 21 22 23 24 25 26 27 28 29 30 31 32 33 34 35 36 37 38 39 40 41 42 43 44 45 46 47 48 49 50
000
ASUS43 KBIS 231610
RWRBIS

NWR BROADCAST TEXT
NATIONAL WEATHER SERVICE BISMARCK ND
1100 AM CDT SUN APR 23 2017

NOTE: "FAIR" INDICATES FEW OR NO CLOUDS BELOW 12,000 FEET WITH NO
SIGNIFICANT WEATHER AND/OR OBSTRUCTIONS TO VISIBILITY.


CITY           SKY/WX    TMP DP  RH WIND       PRES   REMARKS
WILLISTON      CLOUDY    31  24  75 SE15      30.01F
MINOT          LGT SNOW  29  26  89 E15       30.10S VSB 3/4 WCI  18
MINOT AFB      MIX PCPN  28  27  93 E17       30.09F FOG     WCI  16
BISMARCK       CLOUDY    37  31  78 E25G31    30.01F
DICKINSON      CLOUDY    30  26  85 E20       29.92F WCI  17
GARRISON         N/A     28  25  88 E20       30.04F WCI  15
HETTINGER ARPT CLOUDY    34  31  88 E15       29.91F
JAMESTOWN      CLOUDY    32  30  92 E20       30.07F
HAZEN          CLOUDY    32  27  80 E17       30.03F
LINTON           N/A     36  36 100 E28       29.96F
MANDAN         CLOUDY    34  32  93 E22       29.99F
STANLEY        FLURRIES  28  28 100 E25G31    30.06S WCI  14
TIOGA          CLOUDY    28  27  93 E22G30    30.04R WCI  15
WATFORD CITY   CLOUDY    30  28  93 E17G24    29.99S WCI  18
$$

CITY           SKY/WX    TMP DP  RH WIND       PRES   REMARKS
GRAND FORKS    CLOUDY    36  24  62 E16       30.20F
GRAND FORKS AF LGT SNOW  33  24  68 E13       30.19F
DEVILS LAKE    LGT SNOW  28  27  93 E16G25    30.15F FOG     WCI  17
FARGO          CLOUDY    37  32  82 NE14      30.13F
CAVALIER         N/A     34  14  44 E15       30.23S
GRAFTON        FAIR      34  16  47 E15G23    30.24S
GWINNER        CLOUDY    41  37  87 MISG      30.05F
LANGDON        FAIR      32  12  43 E21G30    30.17F WCI  20
ROLLA          FAIR      30   9  40 E20       30.16S WCI  18
$$

CITY           SKY/WX    TMP DP  RH WIND       PRES   REMARKS
ABERDEEN       FAIR      50  38  63 E15       29.98F
MOBRIDGE       FAIR      44  34  67 E23       29.89F
BUFFALO          N/A     35  32  88 E16       29.80F
RAPID CITY     FAIR      56  38  50 SW5       29.80F
GLASGOW        CLOUDY    36  31  82 E18       29.88F
SIDNEY         CLOUDY    36  30  79 SE18      29.96F
WOLF POINT     CLOUDY    38  32  79 E15       29.93F
GLENDIVE       CLOUDY    36  32  85 E15       29.91F
MILES CITY     CLOUDY    43  38  82 NE13      29.83F
BAKER          CLOUDY    34  33  96 E20       29.88F FOG
$$

CITY           SKY/WX    TMP DP  RH WIND       PRES   REMARKS
BILLINGS       PTSUNNY   48  41  76 S7        29.76F
GREAT FALLS    LGT RAIN  43  40  89 W8        29.79S
REGINA         CLOUDY    34  21  60 SE21G28   30.06F
ESTEVAN        CLOUDY    30  16  55 E18G32    30.07F WCI  18
$$




USA.gov is the U.S. government's official web portal to all federal, state and local government web resources and services.